Location: North Evanston
(42.0634°N, 87.6976°W)
Time: 14:52:48
(UTC+00:00)

Vanguard 2 Rocket - Pass Details

Date: 12 May 2026
Orbit: 553 x 3286 km, 32.9° (Epoch: 6 June)

Event Time Altitude Azimuth Distance (km) Brightness Sun altitude
Rises 16:21:43 0° 220° (SW) 5,277 10.9 60.1°
Reaches altitude 10° 16:24:58 10° 213° (SSW) 4,614 10.7 60.5°
Maximum altitude 16:37:45 42° 148° (SSE) 3,645 11.6 62.0°
Drops below altitude 10° 16:55:13 10° 87° (E) 6,233 11.4 63.8°
Sets 17:00:30 0° 82° (E) 7,238 11.6 64.2°
